When you browse on this site, cookies collect data to enhance your experience and personalize the content and advertising you see.
Visit our Privacy Policy to learn more. By continuing to use the site, you agree to this use of cookies and data.
  • In Hungary
  • List of Countries
  • For 7 days
  • Water Temperature
  • Weather Map
  • News
  • Weather Widgets
  • user-avatar
    Login

    Hourly Weather Madison

    Today, 28 March, Saturday

    Time Temperature Precipitation Wind Pressure Humidity
    00:00 +6°C° 0.2 mm 4 mps 732 mmHg 95%
    01:00 +6°C° 0.3 mm 4 mps 731 mmHg 96%
    02:00 +6°C° 0.3 mm 4 mps 731 mmHg 97%
    03:00 +6°C° 0.3 mm 4 mps 730 mmHg 98%
    04:00 +6°C° 1.3 mm 4 mps 730 mmHg 98%
    05:00 +6°C° 1.3 mm 4 mps 730 mmHg 98%
    06:00 +6°C° 1.3 mm 4 mps 730 mmHg 98%
    07:00 +6°C° 1.3 mm 5 mps 730 mmHg 97%
    08:00 +6°C° 1.3 mm 5 mps 730 mmHg 96%
    09:00 +6°C° 1.3 mm 5 mps 730 mmHg 95%
    10:00 +7°C° 0.1 mm 5 mps 730 mmHg 93%
    11:00 +8°C° 0.1 mm 4 mps 730 mmHg 91%
    12:00 +11°C° 0.1 mm 4 mps 730 mmHg 90%
    13:00 +10°C° 0.9 mm 5 mps 729 mmHg 91%
    14:00 +9°C° 0.9 mm 5 mps 728 mmHg 93%
    15:00 +9°C° 0.9 mm 6 mps 727 mmHg 95%
    16:00 +10°C° 1 mm 7 mps 726 mmHg 95%
    17:00 +10°C° 1 mm 7 mps 725 mmHg 96%
    18:00 +10°C° 1 mm 8 mps 724 mmHg 96%
    19:00 +11°C° 1 mm 7 mps 724 mmHg 95%
    20:00 +13°C° 1 mm 6 mps 723 mmHg 93%
    21:00 +13°C° 1 mm 5 mps 723 mmHg 92%
    22:00 +12°C° 0 mm 5 mps 722 mmHg 88%
    23:00 +10°C° 0 mm 5 mps 721 mmHg 83%

    Tomorrow, 29 March, Sunday

    Time Temperature Precipitation Wind Pressure Humidity
    00:00 +8°C° 0 mm 5 mps 720 mmHg 79%
    01:00 +8°C° 0 mm 6 mps 720 mmHg 81%
    02:00 +7°C° 0 mm 6 mps 719 mmHg 83%
    03:00 +7°C° 0 mm 6 mps 718 mmHg 85%
    04:00 +7°C° 0.3 mm 6 mps 718 mmHg 87%
    05:00 +5°C° 0.3 mm 6 mps 718 mmHg 89%
    06:00 +5°C° 0.3 mm 6 mps 718 mmHg 91%
    07:00 +5°C° 0.4 mm 6 mps 719 mmHg 91%
    08:00 +7°C° 0.4 mm 6 mps 719 mmHg 92%
    09:00 +7°C° 0.4 mm 6 mps 719 mmHg 92%
    10:00 +6°C° 0.4 mm 7 mps 721 mmHg 90%
    11:00 +6°C° 0.4 mm 8 mps 722 mmHg 88%
    12:00 +6°C° 0.4 mm 9 mps 723 mmHg 86%
    13:00 +5°C° 0.2 mm 9 mps 724 mmHg 86%
    14:00 +5°C° 0.2 mm 9 mps 726 mmHg 86%
    15:00 +5°C° 0.2 mm 9 mps 727 mmHg 86%
    16:00 +3°C° 0 mm 9 mps 728 mmHg 84%
    17:00 +4°C° 0 mm 8 mps 730 mmHg 83%
    18:00 +4°C° 0 mm 8 mps 731 mmHg 82%
    19:00 +2°C° 0 mm 8 mps 732 mmHg 83%
    20:00 +3°C° 0 mm 7 mps 733 mmHg 83%
    21:00 +3°C° 0 mm 7 mps 735 mmHg 84%
    22:00 +2°C° 0 mm 6 mps 735 mmHg 85%
    23:00 +2°C° 0 mm 5 mps 735 mmHg 86%

    Day after tomorrow, 30 March, Monday

    Time Temperature Precipitation Wind Pressure Humidity
    00:00 +1°C° 0 mm 5 mps 736 mmHg 87%
    01:00 +1°C° 0 mm 5 mps 736 mmHg 88%
    02:00 +1°C° 0 mm 4 mps 737 mmHg 89%
    03:00 +1°C° 0 mm 4 mps 737 mmHg 90%
    04:00 0°C° 0 mm 4 mps 738 mmHg 89%
    05:00 0°C° 0 mm 4 mps 739 mmHg 89%
    06:00 0°C° 0 mm 4 mps 739 mmHg 88%
    07:00 +1°C° 0 mm 4 mps 740 mmHg 84%
    08:00 +1°C° 0 mm 4 mps 741 mmHg 79%
    09:00 +2°C° 0 mm 5 mps 741 mmHg 75%
    10:00 +4°C° 0 mm 4 mps 741 mmHg 72%
    11:00 +5°C° 0 mm 4 mps 742 mmHg 70%
    12:00 +5°C° 0 mm 4 mps 742 mmHg 67%
    13:00 +6°C° 0 mm 4 mps 742 mmHg 65%
    14:00 +7°C° 0 mm 4 mps 741 mmHg 62%
    15:00 +8°C° 0 mm 4 mps 741 mmHg 60%
    16:00 +8°C° 0 mm 3 mps 741 mmHg 64%
    17:00 +7°C° 0 mm 2 mps 741 mmHg 69%
    18:00 +6°C° 0 mm 2 mps 741 mmHg 73%
    19:00 +5°C° 0 mm 2 mps 741 mmHg 77%
    20:00 +4°C° 0 mm 2 mps 741 mmHg 80%
    21:00 +3°C° 0 mm 2 mps 742 mmHg 84%
    22:00 +2°C° 0 mm 2 mps 742 mmHg 87%
    23:00 +1°C° 0 mm 2 mps 742 mmHg 90%

    31 March, Tuesday

    Time Temperature Precipitation Wind Pressure Humidity
    00:00 0°C° 0 mm 3 mps 742 mmHg 93%
    01:00 -1°C° 0 mm 3 mps 742 mmHg 93%
    02:00 -1°C° 0 mm 2 mps 741 mmHg 94%
    03:00 -2°C° 0 mm 2 mps 741 mmHg 94%
    04:00 -2°C° 0 mm 3 mps 741 mmHg 93%
    05:00 -2°C° 0 mm 3 mps 741 mmHg 93%
    06:00 -2°C° 0 mm 3 mps 741 mmHg 92%
    07:00 -2°C° 0 mm 4 mps 741 mmHg 86%
    08:00 -1°C° 0 mm 4 mps 740 mmHg 80%
    09:00 0°C° 0 mm 4 mps 740 mmHg 74%
    10:00 +1°C° 0 mm 4 mps 740 mmHg 72%
    11:00 +3°C° 0 mm 4 mps 739 mmHg 70%
    12:00 +4°C° 0 mm 4 mps 739 mmHg 68%
    13:00 +5°C° 0 mm 4 mps 738 mmHg 68%
    14:00 +5°C° 0 mm 4 mps 738 mmHg 68%
    15:00 +5°C° 0 mm 4 mps 737 mmHg 68%
    16:00 +5°C° 0 mm 4 mps 737 mmHg 70%
    17:00 +4°C° 0 mm 3 mps 737 mmHg 73%
    18:00 +3°C° 0 mm 3 mps 737 mmHg 76%
    19:00 +3°C° 0 mm 2 mps 737 mmHg 79%
    20:00 +2°C° 0 mm 2 mps 737 mmHg 83%
    21:00 +1°C° 0 mm 2 mps 737 mmHg 87%
    22:00 +1°C° 0 mm 2 mps 737 mmHg 88%
    23:00 +1°C° 0 mm 1 mps 737 mmHg 89%

    1 April, Wednesday

    Time Temperature Precipitation Wind Pressure Humidity
    00:00 +1°C° 0 mm 1 mps 737 mmHg 90%
    01:00 +1°C° 0 mm 1 mps 737 mmHg 89%
    02:00 +1°C° 0 mm 1 mps 736 mmHg 89%
    03:00 +1°C° 0 mm 1 mps 736 mmHg 89%
    04:00 +1°C° 0 mm 1 mps 736 mmHg 89%
    05:00 +1°C° 0 mm 1 mps 736 mmHg 89%
    06:00 0°C° 0 mm 0 mps 737 mmHg 89%
    07:00 +3°C° 0 mm 1 mps 737 mmHg 83%
    08:00 +4°C° 0 mm 1 mps 736 mmHg 76%
    09:00 +5°C° 0 mm 2 mps 736 mmHg 69%
    10:00 +6°C° 0 mm 2 mps 736 mmHg 68%
    11:00 +7°C° 0 mm 2 mps 736 mmHg 67%
    12:00 +7°C° 0 mm 2 mps 736 mmHg 66%
    13:00 +7°C° 0.1 mm 2 mps 736 mmHg 71%
    14:00 +7°C° 0.1 mm 3 mps 736 mmHg 76%
    15:00 +5°C° 0.1 mm 3 mps 735 mmHg 81%
    16:00 +5°C° 0.1 mm 3 mps 735 mmHg 84%
    17:00 +5°C° 0.1 mm 2 mps 735 mmHg 88%
    18:00 +4°C° 0.1 mm 2 mps 735 mmHg 92%
    19:00 +4°C° 0 mm 2 mps 736 mmHg 93%
    20:00 +3°C° 0 mm 2 mps 736 mmHg 93%
    21:00 +2°C° 0 mm 2 mps 736 mmHg 94%
    22:00 +1°C° 0 mm 3 mps 736 mmHg 90%
    23:00 0°C° 0 mm 3 mps 737 mmHg 87%

    2 April, Thursday

    Time Temperature Precipitation Wind Pressure Humidity
    00:00 0°C° 0 mm 3 mps 737 mmHg 83%
    01:00 -1°C° 0 mm 3 mps 737 mmHg 81%
    02:00 -1°C° 0 mm 2 mps 736 mmHg 78%
    03:00 -1°C° 0 mm 2 mps 736 mmHg 76%
    04:00 -1°C° 0 mm 2 mps 736 mmHg 76%
    05:00 +1°C° 0 mm 1 mps 736 mmHg 75%
    06:00 +1°C° 0 mm 1 mps 736 mmHg 75%
    07:00 +2°C° 0 mm 1 mps 736 mmHg 72%
    08:00 +2°C° 0 mm 2 mps 736 mmHg 69%
    09:00 +3°C° 0 mm 2 mps 736 mmHg 66%
    10:00 +2°C° 0.4 mm 3 mps 736 mmHg 71%
    11:00 +2°C° 0.4 mm 3 mps 736 mmHg 77%
    12:00 +1°C° 0.4 mm 4 mps 736 mmHg 82%
    13:00 +3°C° 0.3 mm 4 mps 736 mmHg 78%
    14:00 +2°C° 0.3 mm 5 mps 736 mmHg 73%
    15:00 +2°C° 0.3 mm 6 mps 736 mmHg 69%
    16:00 +2°C° 0 mm 5 mps 736 mmHg 67%
    17:00 +2°C° 0 mm 5 mps 736 mmHg 66%
    18:00 +1°C° 0 mm 4 mps 737 mmHg 64%
    19:00 0°C° 0 mm 4 mps 737 mmHg 70%
    20:00 0°C° 0 mm 5 mps 737 mmHg 76%
    21:00 -1°C° 0 mm 5 mps 738 mmHg 81%
    22:00 -1°C° 0 mm 5 mps 738 mmHg 85%
    23:00 -1°C° 0 mm 5 mps 738 mmHg 88%
    Show more